CAPE
0 0 0 0 0 0 0 0 0 0 0 0 0 0 0 0 0 0 0 0 0 0 0 0 11 0 0 0 1 0 0 0 0 39 27 15 1 1 2 2 2 2 0
0 0 0 0 0 0 0 0 0 0 0 0 0 0 0 0 0 0 0 15 0 0 7 9 66 2 0 0 1 2 0 0 0 51 4 3 1 2 1 1 2 2 1
0 0 0 0 0 0 0 0 0 0 0 0 0 0 2 0 0 1 7 29 0 0 3 22 60 7 1 1 4 3 2 1 38 2 3 2 2 2 3 4 2 2 2
0 0 0 0 0 0 0 0 0 0 0 0 3 2 0 0 18 63 56 19 3 0 5 23 33 6 1 8 4 3 3 7 3 3 2 1 2 5 0 2 8 9 16
0 0 0 0 0 0 0 0 0 0 0 16 13 0 0 0 0 1 3 6 3 1 26 4 6 1 0 1 2 4 6 3 2 4 4 2 2 1 1 2 2 7 2
0 1 0 0 0 0 0 0 0 0 2 24 7 0 0 0 1 1 0 28 5 6 4 1 2 0 0 0 0 0 1 2 2 1 3 4 4 5 2 2 6 6 1
1 4 76 0 0 1 0 0 0 0 27 10 0 0 0 0 1 1 1 2 9 11 3 3 2 0 0 0 0 0 0 0 0 0 2 4 7 4 4 5 5 5 1
11 21 54 0 0 17 4 0 0 16 24 4 0 0 0 0 1 1 0 9 3 2 1 1 1 1 0 0 2 1 1 0 0 2 0 2 3 5 4 2 0 3 0
5 67 17 0 0 6 0 0 0 11 7 0 0 0 0 1 1 1 0 1 3 3 2 2 2 0 0 0 1 1 1 1 0 0 0 0 0 0 0 0 0 0 1
3 20 9 0 0 0 0 0 0 0 0 0 0 0 0 0 1 1 3 4 2 1 1 0 0 0 0 0 1 1 1 2 1 0 0 0 0 0 0 0 0 0 0
1 0 0 0 0 0 0 0 0 0 0 0 0 0 0 1 0 1 0 2 2 2 2 1 0 0 0 0 0 1 1 0 0 1 0 0 0 0 0 0 0 0 0
3 0 0 0 0 0 0 0 0 0 0 0 0 0 1 2 0 1 0 0 0 1 2 0 0 0 0 0 0 0 0 0 0 0 0 0 0 0 0 0 0 0 0
0 0 0 5 0 0 0 0 0 0 0 0 0 0 1 2 1 1 2 0 0 1 0 1 1 2 2 1 1 0 0 0 0 1 1 1 0 0 0 0 0 0 0
0 0 0 6 0 0 0 0 0 0 0 0 0 0 1 2 3 2 0 1 1 0 1 0 1 1 0 0 0 0 0 0 0 0 0 0 0 0 0 0 0 0 0
0 0 0 0 0 0 0 0 0 0 0 0 0 0 0 0 1 0 0 1 1 0 0 0 1 2 2 2 1 0 0 0 0 0 0 0 0 0 0 0 0 0 0
0 0 0 0 0 0 0 0 0 0 0 0 0 0 0 0 0 1 0 0 1 0 1 2 2 2 3 2 2 1 0 0 0 0 0 0 0 0 0 0 0 0 0
0 0 0 0 0 0 0 0 0 0 0 1 1 0 0 0 3 2 3 2 2 0 1 2 1 1 2 1 2 1 0 0 0 0 0 0 0 0 0 0 0 0 0
0 0 0 0 0 0 0 0 0 0 0 0 1 0 0 3 1 2 1 1 0 0 0 1 1 1 1 0 2 1 0 0 0 0 0 0 0 0 0 0 0 0 0
0 0 0 0 0 0 0 0 0 0 0 0 0 0 1 1 1 1 0 0 1 0 0 0 0 0 0 1 0 0 2 0 0 0 0 0 0 0 0 0 0 0 0
0 0 0 0 0 0 0 0 0 0 0 0 0 0 1 1 1 1 0 0 0 0 0 0 0 0 0 2 0 0 0 0 0 0 0 0 0 0 0 0 0 0 0
0 0 0 0 0 0 0 0 0 0 0 0 0 0 0 0 0 0 0 0 0 0 0 0 0 0 0 0 0 2 2 0 0 0 0 0 0 0 0 0 0 0 0
0 0 0 0 0 0 0 0 0 0 0 0 0 0 0 0 0 0 0 0 0 0 0 0 0 0 0 0 0 0 0 0 0 0 0 0 0 0 0 0 0 0 0
0 0 0 0 0 0 0 0 0 0 0 0 0 0 0 0 0 0 0 0 0 0 0 0 0 0 0 0 0 0 0 0 0 0 0 0 0 0 0 0 0 0 0
0 0 0 0 0 0 0 0 0 0 0 0 0 0 0 0 0 0 0 0 0 0 0 0 0 0 0 0 0 0 0 0 0 0 0 0 0 0 0 0 0 0 0
0 0 2 3 0 0 0 0 0 0 0 0 0 0 0 0 0 0 0 0 0 0 0 0 0 0 0 0 0 0 0 0 0 0 0 0 0 0 0 0 0 0 0
2 3 4 3 1 2 1 0 1 0 1 1 0 0 0 0 0 0 0 0 0 0 0 0 0 0 0 0 0 0 0 0 0 0 0 0 0 0 0 0 0 0 0
CIN
0 0 0 0 0 0 0 0 0 0 0 0 0 0 0 0 0 0 0 0 0 0 0 0 -98 0 0 0 0 0 0 0 0 -38 -24 -8 0 0 -6 0 0 0 0
0 0 0 0 0 0 0 0 0 0 0 0 0 0 0 0 0 0 0 -98 0 0 -100 -119 -100 -39 0 0 0 0 0 0 0 -13 0 0 0 0 0 0 0 0 0
0 0 0 0 0 0 0 0 0 0 0 0 0 0 -110 0 0 -110 -92 -83 0 0 -79 -122 -110 -132 0 0 -89 0 0 -21 -38 -11 0 0 0 0 0 0 0 0 0
0 0 0 0 0 0 0 0 0 0 0 0 -56 -88 0 0 -103 -49 -46 -73 -146 0 -50 -129 -126 -154 0 -111 -40 0 -8 -37 0 0 0 0 0 0 -1 -1 0 -1 0
0 0 0 0 0 0 0 0 0 0 0 -111 -130 0 0 0 0 -37 -118 -121 -141 0 -90 -30 -123 -9 0 0 0 0 0 0 0 0 0 0 0 0 0 -1 -1 0 0
0 -182 -10 -2 0 0 0 0 0 0 -97 -110 -146 0 0 0 0 0 0 -70 -61 -108 -111 0 0 0 0 0 0 0 0 0 0 0 0 0 0 0 0 -1 0 0 0
-143 -438 -220 -14 0 -32 0 0 0 0 -110 -147 0 0 0 0 0 0 0 -136 -115 -109 -44 0 0 0 0 0 0 0 0 0 0 0 0 0 0 0 -1 -1 -1 -2 0
-374 -316 -235 0 0 -84 -65 0 0 -138 -126 -171 0 0 0 0 0 0 0 -96 -86 0 0 0 0 0 0 0 -4 0 0 0 -4 -3 -1 -3 -2 -2 -4 -2 -1 0 0
-363 -221 -309 0 0 -80 -53 -9 0 -140 -157 0 0 0 0 0 0 0 0 -19 -69 0 0 0 0 0 0 0 0 0 0 0 0 0 0 0 0 0 0 0 0 0 0
-395 -334 -370 0 0 0 0 0 0 0 0 0 0 0 0 0 0 0 -13 0 0 0 0 0 0 0 0 0 0 0 0 0 0 0 0 0 0 0 0 0 0 0 0
-164 0 0 0 0 0 0 0 0 0 0 0 0 0 0 0 0 0 0 0 0 0 0 0 0 0 0 0 0 0 0 0 0 0 0 0 0 0 0 0 0 0 0
-186 0 0 0 0 0 0 0 0 0 0 0 0 0 0 0 0 0 0 0 -1 0 0 0 0 0 0 0 0 0 0 0 0 0 0 0 0 0 0 0 0 0 0
0 0 0 -217 0 0 0 0 0 0 0 0 0 0 0 0 0 0 0 0 0 0 0 0 0 0 0 0 0 0 0 0 0 0 0 0 0 0 0 0 0 0 0
0 0 0 -213 0 0 0 0 0 0 0 0 0 0 0 0 0 0 0 0 0 0 0 0 0 0 0 0 0 0 0 0 0 0 0 0 0 0 0 0 0 0 0
0 0 0 0 0 0 0 0 0 0 0 0 0 0 0 0 0 0 0 0 0 0 0 0 0 0 0 0 0 0 0 0 0 0 0 0 0 0 0 0 0 0 0
0 0 0 0 0 0 0 0 0 0 0 0 0 0 0 0 0 0 0 0 0 0 0 0 0 0 0 0 0 0 0 0 0 0 0 0 0 0 0 0 0 0 0
0 0 0 0 0 0 0 0 0 0 0 0 0 0 0 0 0 0 0 0 0 0 0 0 0 0 0 0 0 0 0 0 0 0 0 0 0 0 0 0 0 0 0
0 0 0 0 0 0 0 0 0 0 0 0 0 0 0 0 0 0 0 0 0 0 0 0 0 0 0 -4 -1 0 0 0 0 0 0 0 0 0 0 0 0 0 0
0 0 0 0 0 0 0 0 0 0 0 0 0 0 0 0 0 0 0 0 0 0 0 0 0 0 0 -6 -2 0 0 0 0 0 0 0 0 0 0 0 0 0 0
0 0 0 0 0 0 0 0 0 0 0 0 0 0 0 0 0 0 0 0 0 0 0 0 0 0 0 0 0 0 0 0 0 0 0 0 0 0 0 0 0 0 0
0 0 0 0 0 0 0 0 0 0 0 0 0 0 0 0 0 0 0 0 0 0 0 0 0 0 0 0 0 0 0 0 0 0 0 0 0 0 0 0 0 0 0
0 0 0 0 0 0 0 0 0 0 0 0 0 0 0 0 0 0 0 0 0 0 0 0 0 0 0 0 0 0 0 0 0 0 0 0 0 0 0 0 0 0 0
0 0 0 0 0 0 0 0 0 0 0 0 0 0 0 0 0 0 0 0 0 0 0 0 0 0 0 0 0 0 0 0 0 0 0 0 0 0 0 0 0 0 0
0 0 0 0 0 0 0 0 0 0 0 0 0 0 0 0 0 0 0 0 0 0 0 0 0 0 0 0 0 0 0 0 0 0 0 0 0 0 0 0 0 0 0
0 0 0 0 0 0 0 0 0 0 0 0 0 0 0 0 0 0 0 0 0 0 0 0 0 0 0 0 0 0 0 0 0 0 0 0 0 0 0 0 0 0 0
0 0 0 0 0 0 0 0 0 0 0 0 0 0 0 0 0 0 0 0 0 0 0 0 0 0 0 0 0 0 0 0 0 0 0 0 0 0 0 0 0 0 0
Wind_Speed
10 9 10 8 8 7 7 6 6 5 6 6 5 4 3 4 4 3 4 4 5 4 4 5 5 5 3 4 4 3 3 2 5 2 1 5 4 8 6 7 8 11 15
8 9 9 8 7 7 6 6 5 6 5 5 4 2 3 4 4 4 4 4 5 6 6 5 4 4 4 4 3 5 5 3 5 7 2 3 4 8 9 12 10 10 13
9 9 7 7 7 6 6 6 5 6 5 4 4 3 3 2 1 2 3 3 4 4 5 5 4 6 5 5 5 5 5 5 7 7 5 3 4 8 12 12 15 15 12
8 7 7 6 6 6 6 5 5 5 5 2 4 4 4 3 2 2 2 2 3 2 3 5 5 8 7 7 7 8 8 9 9 9 9 7 6 6 11 13 13 13 12
7 5 5 5 5 6 6 5 5 4 3 4 5 5 4 4 3 3 3 2 4 3 2 3 6 8 9 7 7 8 11 10 10 9 9 9 8 8 12 9 14 12 9
6 5 5 6 6 5 5 5 5 4 4 5 5 5 4 3 7 6 2 3 4 5 5 7 6 10 9 11 10 8 10 11 12 9 9 11 10 9 9 11 13 12 7
6 5 6 5 6 5 5 5 4 4 4 5 5 4 3 3 6 4 4 3 5 6 8 7 7 6 9 9 11 13 12 12 10 12 13 12 12 12 12 12 12 7 6
5 6 6 6 5 5 6 5 4 3 4 5 4 3 2 4 4 7 8 6 6 7 7 8 8 8 9 10 11 11 10 11 10 9 11 12 13 12 10 10 11 11 9
6 6 6 6 5 5 6 5 3 4 3 3 3 3 2 5 4 6 7 5 7 7 6 7 8 9 9 11 13 13 14 11 15 18 17 17 16 15 11 11 10 12 8
6 6 6 6 6 6 6 6 3 3 3 3 4 3 4 5 5 8 7 5 6 5 6 7 11 10 11 13 14 13 14 12 15 16 13 13 13 10 8 5 9 11 9
6 5 6 5 5 5 5 3 4 4 5 4 4 3 4 4 4 6 9 5 5 5 5 6 6 11 11 11 11 13 13 14 14 13 10 8 7 7 6 6 5 9 8
6 6 6 6 5 5 6 3 4 5 5 4 4 4 3 3 5 4 8 8 8 6 7 6 5 10 12 11 9 14 17 13 9 9 8 7 8 7 6 7 6 6 4
6 6 5 6 5 6 6 5 4 4 4 4 3 3 2 2 3 6 7 10 11 7 6 10 12 11 13 12 12 15 12 9 9 9 9 7 6 6 7 6 4 4 4
6 6 5 6 6 4 4 4 4 4 4 5 4 3 3 2 4 3 4 6 9 9 11 8 9 10 9 9 7 6 7 7 8 8 8 6 6 6 6 5 4 5 4
6 6 4 4 5 5 4 2 3 2 4 5 4 4 4 4 4 6 8 6 6 8 9 5 6 6 5 6 5 6 6 7 7 6 8 8 7 7 6 5 4 5 4
7 5 5 5 4 4 4 3 7 3 6 6 9 6 2 3 10 10 10 12 15 13 5 6 5 6 6 6 7 6 5 6 6 7 7 8 8 8 7 4 3 5 6
8 7 5 5 5 5 4 4 4 4 8 5 6 8 7 9 10 11 12 14 10 10 5 5 5 6 6 7 6 7 7 6 7 8 8 8 7 6 5 6 6 5 6
6 10 8 7 6 5 5 4 3 4 3 3 6 3 3 8 10 13 13 10 4 3 6 7 6 6 7 7 8 8 6 6 7 7 7 8 8 8 7 6 7 7 7
6 6 6 6 6 5 4 4 3 3 3 4 3 4 8 10 10 11 10 6 7 6 6 7 6 7 6 6 7 8 8 8 8 8 8 8 8 8 8 8 8 8 7
4 6 6 6 6 6 5 5 4 3 3 4 4 5 5 4 5 6 6 5 7 7 8 8 8 8 8 9 8 8 8 7 8 9 9 9 8 9 10 10 9 9 9
0 3 5 2 4 6 6 6 5 4 4 4 5 6 9 7 8 9 8 8 8 8 8 9 9 9 9 9 9 10 10 9 9 9 9 9 9 9 10 10 10 10 10
4 2 5 5 4 4 5 6 6 6 6 5 4 4 10 6 7 8 8 9 9 8 8 8 8 9 9 10 10 10 11 11 11 11 11 10 10 10 10 10 10 10 10
7 8 4 2 3 5 4 5 5 6 6 6 5 6 7 8 8 8 9 9 9 9 9 9 9 9 9 10 10 11 11 12 12 11 11 11 11 10 10 11 11 11 11
7 9 8 7 5 1 2 4 5 7 7 7 6 6 7 8 9 11 10 9 9 10 10 10 11 14 11 11 10 11 11 11 10 12 16 12 12 12 12 12 12 14 13
8 8 9 8 8 7 6 5 2 3 5 5 5 6 7 7 8 9 9 8 9 9 12 12 11 15 18 19 17 18 16 14 16 13 12 16 16 17 15 13 14 13 14
11 11 10 9 9 8 8 7 7 7 8 7 6 6 6 6 7 7 7 8 8 10 11 10 13 19 20 18 21 20 15 16 17 15 15 13 14 14 14 17 19 13 14
Wind_Direction
105 109 109 106 107 105 112 128 134 123 136 143 153 162 185 213 218 201 230 214 219 215 222 215 215 182 180 182 180 166 174 136 120 95 82 101 73 94 90 97 113 117 121
104 103 101 104 106 109 115 129 135 129 135 132 147 167 239 246 220 209 237 219 213 207 221 212 221 163 170 177 166 168 171 133 133 121 69 82 84 100 98 97 96 107 117
111 110 106 112 116 123 129 135 124 123 130 154 151 197 154 85 29 246 231 230 207 221 216 198 180 148 156 148 139 137 133 129 130 120 113 94 85 108 97 97 102 97 99
119 123 129 140 137 131 131 128 131 135 141 151 130 120 84 78 21 328 242 187 143 151 194 193 164 158 163 145 138 136 131 120 116 114 116 111 107 114 110 118 105 104 107
126 123 125 115 111 127 127 128 136 141 154 139 116 88 74 62 40 13 69 99 110 83 62 116 139 153 147 142 143 142 139 130 128 128 125 121 121 131 125 121 113 113 94
118 134 131 117 129 140 135 144 147 142 145 131 104 102 84 64 7 31 49 101 116 105 90 85 104 112 110 110 110 115 146 140 138 132 137 137 134 126 130 128 126 133 128
137 141 138 141 145 151 142 141 145 141 139 119 107 104 86 49 12 92 86 100 106 111 109 107 98 103 113 111 98 94 87 112 120 138 138 141 132 138 136 128 126 120 112
149 147 138 153 149 163 135 141 147 142 156 125 117 99 83 48 24 100 103 94 96 97 108 121 124 120 126 121 116 103 99 116 127 127 125 130 127 124 123 121 119 108 94
156 155 157 154 151 129 127 152 138 129 112 117 117 130 89 66 38 113 112 95 98 96 108 108 112 118 123 111 111 107 98 86 76 85 91 97 97 102 122 122 129 129 122
170 167 159 154 153 141 151 159 127 126 128 126 120 100 86 86 71 126 109 108 102 94 83 96 99 120 118 114 114 115 111 109 109 105 101 93 108 109 86 119 145 137 131
150 150 151 152 149 134 143 136 129 132 131 127 112 86 80 50 93 122 116 114 117 105 101 103 111 115 107 104 116 125 118 115 111 109 108 113 122 127 124 127 131 146 143
156 151 140 145 137 134 139 129 128 132 135 132 120 99 76 68 80 115 117 112 121 120 113 110 101 108 103 99 108 121 113 108 114 119 124 139 149 150 144 142 135 144 84
147 146 154 133 131 141 138 141 128 142 144 140 135 132 110 86 82 84 95 108 112 110 112 108 106 96 97 90 123 120 113 127 133 141 151 159 166 142 126 117 121 97 62
149 148 159 140 137 134 127 138 141 149 149 148 151 156 138 115 118 117 111 99 91 92 104 106 101 90 86 114 124 107 125 137 148 151 155 145 130 146 155 153 156 179 207
148 149 157 135 152 137 107 132 153 167 162 158 165 164 160 158 167 152 145 136 126 119 114 118 120 117 121 129 118 124 131 136 143 146 152 157 165 171 165 171 159 175 200
151 156 168 163 155 142 142 135 43 46 161 152 153 153 180 139 136 135 128 123 126 132 126 135 130 130 137 151 157 154 158 150 150 155 163 169 172 176 179 171 172 188 204
168 158 157 154 158 156 157 166 156 46 66 68 160 158 156 149 141 137 140 136 134 131 137 137 136 140 145 163 171 180 179 177 163 174 177 183 178 182 176 200 201 202 217
165 166 166 171 172 168 172 173 170 163 146 145 58 68 106 124 128 126 127 116 125 103 157 161 162 164 170 177 179 192 183 175 187 182 186 189 191 195 197 214 213 221 228
163 169 172 168 169 165 158 164 182 163 141 130 130 81 76 88 104 132 162 160 174 178 178 185 182 180 184 186 193 203 199 196 197 196 201 203 205 207 218 224 231 227 226
180 185 175 172 158 161 166 178 184 191 167 166 174 154 140 142 163 169 198 188 187 188 186 189 187 189 191 195 200 206 208 199 200 205 209 211 213 216 228 231 233 238 228
121 159 159 146 180 180 178 190 193 183 195 195 189 175 178 179 181 185 191 200 199 199 197 197 195 194 195 195 196 201 207 211 212 213 213 214 214 218 223 230 234 235 242
44 154 174 182 169 191 205 198 191 199 204 206 204 174 169 201 188 195 202 207 210 210 205 201 203 203 201 198 196 198 200 202 201 205 211 214 212 219 223 227 234 237 239
35 41 57 143 180 175 181 188 200 211 214 216 208 172 184 205 210 206 208 210 206 209 208 206 209 211 209 207 202 202 203 208 209 206 210 213 215 218 220 226 230 235 234
41 44 31 29 33 4 234 217 214 207 210 216 213 212 200 206 210 216 217 213 210 211 207 208 213 215 213 213 214 214 214 213 208 207 207 211 217 215 224 228 230 230 233
32 37 43 22 18 21 26 21 321 261 247 246 241 227 223 214 218 225 229 223 220 215 212 211 214 220 219 215 216 215 214 204 211 208 206 216 220 220 219 224 226 228 227
43 33 32 26 24 18 18 25 27 35 42 26 350 306 279 255 240 240 235 230 227 227 226 223 228 224 223 223 225 222 213 208 212 213 215 218 225 228 228 231 232 230 232